When you browse on this site, cookies collect data to enhance your experience and personalize the content and advertising you see.
Visit our Privacy Policy to learn more. By continuing to use the site, you agree to this use of cookies and data.
  • In Hungary
  • List of Countries
  • For 7 days
  • Water Temperature
  • Satellite Maps
  • Weather Map
  • News
  • Weather Widgets
  • user-avatar
    Login

    Hourly Weather Puke

    Today, 19 November, Monday

    Time Temperature Precipitation Wind Pressure Humidity
    00:00 +2°C° 0.2 mm 2 mps 686 mmHg 86%
    01:00 +3°C° 0.2 mm 1 mps 686 mmHg 87%
    02:00 +3°C° 0.2 mm 1 mps 686 mmHg 87%
    03:00 +3°C° 0.2 mm 1 mps 686 mmHg 87%
    04:00 +3°C° 0.2 mm 1 mps 686 mmHg 87%
    05:00 +3°C° 0 mm 1 mps 686 mmHg 88%
    06:00 +3°C° 0 mm 1 mps 687 mmHg 88%
    07:00 +2°C° 0 mm 1 mps 687 mmHg 88%
    08:00 +4°C° 0 mm 1 mps 687 mmHg 84%
    09:00 +6°C° 0 mm 1 mps 688 mmHg 81%
    10:00 +7°C° 0 mm 1 mps 688 mmHg 77%
    11:00 +8°C° 0 mm 1 mps 688 mmHg 73%
    12:00 +9°C° 0 mm 1 mps 688 mmHg 70%
    13:00 +9°C° 0 mm 1 mps 688 mmHg 66%
    14:00 +9°C° 0 mm 1 mps 688 mmHg 69%
    15:00 +8°C° 0 mm 1 mps 688 mmHg 72%
    16:00 +8°C° 0 mm 1 mps 688 mmHg 75%
    17:00 +6°C° 0.2 mm 2 mps 688 mmHg 76%
    18:00 +6°C° 0.2 mm 2 mps 688 mmHg 78%
    19:00 +5°C° 0.2 mm 3 mps 688 mmHg 79%
    20:00 +5°C° 0.5 mm 3 mps 688 mmHg 80%
    21:00 +5°C° 0.5 mm 3 mps 688 mmHg 81%
    22:00 +5°C° 0.5 mm 3 mps 688 mmHg 82%
    23:00 +5°C° 1.9 mm 3 mps 688 mmHg 84%

    Tomorrow, 20 November, Tuesday

    Time Temperature Precipitation Wind Pressure Humidity
    00:00 +5°C° 1.9 mm 3 mps 688 mmHg 87%
    01:00 +5°C° 1.9 mm 3 mps 688 mmHg 89%
    02:00 +7°C° 3.1 mm 3 mps 688 mmHg 90%
    03:00 +7°C° 3.1 mm 3 mps 687 mmHg 91%
    04:00 +7°C° 3.1 mm 3 mps 687 mmHg 92%
    05:00 +7°C° 4.1 mm 3 mps 687 mmHg 92%
    06:00 +7°C° 4.1 mm 3 mps 687 mmHg 92%
    07:00 +7°C° 4.1 mm 3 mps 687 mmHg 92%
    08:00 +7°C° 3.9 mm 3 mps 687 mmHg 92%
    09:00 +8°C° 3.9 mm 3 mps 688 mmHg 92%
    10:00 +8°C° 3.9 mm 3 mps 688 mmHg 92%
    11:00 +8°C° 2.9 mm 3 mps 688 mmHg 91%
    12:00 +8°C° 2.9 mm 3 mps 687 mmHg 91%
    13:00 +9°C° 2.9 mm 3 mps 687 mmHg 91%
    14:00 +9°C° 1.7 mm 3 mps 687 mmHg 91%
    15:00 +9°C° 1.7 mm 3 mps 687 mmHg 91%
    16:00 +9°C° 1.7 mm 3 mps 687 mmHg 91%
    17:00 +9°C° 1 mm 3 mps 687 mmHg 91%
    18:00 +9°C° 1 mm 3 mps 687 mmHg 91%
    19:00 +9°C° 1 mm 3 mps 687 mmHg 91%
    20:00 +9°C° 0.9 mm 2 mps 687 mmHg 91%
    21:00 +9°C° 0.9 mm 2 mps 687 mmHg 92%
    22:00 +9°C° 0.9 mm 2 mps 687 mmHg 92%
    23:00 +8°C° 0.4 mm 2 mps 687 mmHg 92%

    Day after tomorrow, 21 November, Wednesday

    Time Temperature Precipitation Wind Pressure Humidity
    00:00 +8°C° 0.4 mm 2 mps 687 mmHg 92%
    01:00 +8°C° 0.4 mm 2 mps 686 mmHg 92%
    02:00 +8°C° 0.8 mm 2 mps 686 mmHg 92%
    03:00 +8°C° 0.8 mm 2 mps 686 mmHg 92%
    04:00 +8°C° 0.8 mm 2 mps 685 mmHg 92%
    05:00 +8°C° 1.7 mm 2 mps 685 mmHg 92%
    06:00 +8°C° 1.7 mm 2 mps 686 mmHg 93%
    07:00 +8°C° 1.7 mm 2 mps 686 mmHg 93%
    08:00 +8°C° 1.1 mm 2 mps 686 mmHg 91%
    09:00 +9°C° 1.1 mm 2 mps 687 mmHg 89%
    10:00 +9°C° 1.1 mm 2 mps 687 mmHg 88%
    11:00 +9°C° 1.4 mm 2 mps 687 mmHg 88%
    12:00 +9°C° 1.4 mm 2 mps 687 mmHg 89%
    13:00 +9°C° 1.4 mm 2 mps 687 mmHg 89%
    14:00 +9°C° 1.6 mm 2 mps 687 mmHg 90%
    15:00 +9°C° 1.6 mm 2 mps 688 mmHg 90%
    16:00 +9°C° 1.6 mm 2 mps 688 mmHg 91%
    17:00 +8°C° 0.8 mm 2 mps 688 mmHg 91%
    18:00 +8°C° 0.8 mm 2 mps 689 mmHg 91%
    19:00 +8°C° 0.8 mm 2 mps 689 mmHg 91%
    20:00 +8°C° 0.3 mm 2 mps 689 mmHg 91%
    21:00 +9°C° 0.3 mm 1 mps 690 mmHg 91%
    22:00 +8°C° 0.3 mm 1 mps 690 mmHg 91%
    23:00 +8°C° 0.3 mm 1 mps 690 mmHg 91%

    22 November, Thursday

    Time Temperature Precipitation Wind Pressure Humidity
    00:00 +8°C° 0.3 mm 1 mps 690 mmHg 91%
    01:00 +8°C° 0.3 mm 1 mps 690 mmHg 90%
    02:00 +8°C° 0.3 mm 1 mps 690 mmHg 90%
    03:00 +8°C° 0.3 mm 1 mps 691 mmHg 90%
    04:00 +8°C° 0.3 mm 1 mps 691 mmHg 90%
    05:00 +7°C° 0.1 mm 1 mps 691 mmHg 90%
    06:00 +7°C° 0.1 mm 1 mps 691 mmHg 89%
    07:00 +7°C° 0.1 mm 1 mps 692 mmHg 89%
    08:00 +8°C° 0 mm 1 mps 692 mmHg 85%
    09:00 +9°C° 0 mm 1 mps 693 mmHg 81%
    10:00 +10°C° 0 mm 1 mps 693 mmHg 78%
    11:00 +11°C° 0 mm 1 mps 693 mmHg 76%
    12:00 +11°C° 0 mm 1 mps 693 mmHg 75%
    13:00 +11°C° 0 mm 1 mps 693 mmHg 74%
    14:00 +11°C° 0 mm 1 mps 693 mmHg 77%
    15:00 +10°C° 0 mm 1 mps 693 mmHg 81%
    16:00 +9°C° 0 mm 1 mps 693 mmHg 84%
    17:00 +9°C° 0 mm 1 mps 694 mmHg 86%
    18:00 +8°C° 0 mm 1 mps 694 mmHg 88%
    19:00 +8°C° 0 mm 1 mps 694 mmHg 89%
    20:00 +8°C° 0 mm 1 mps 695 mmHg 89%
    21:00 +7°C° 0 mm 1 mps 695 mmHg 88%
    22:00 +7°C° 0 mm 1 mps 695 mmHg 88%
    23:00 +7°C° 0 mm 1 mps 695 mmHg 88%

    23 November, Friday

    Time Temperature Precipitation Wind Pressure Humidity
    00:00 +7°C° 0 mm 1 mps 695 mmHg 87%
    01:00 +6°C° 0 mm 1 mps 696 mmHg 87%
    02:00 +6°C° 0 mm 1 mps 696 mmHg 87%
    03:00 +5°C° 0 mm 2 mps 696 mmHg 87%
    04:00 +5°C° 0 mm 2 mps 696 mmHg 86%
    05:00 +5°C° 0 mm 2 mps 696 mmHg 86%
    06:00 +4°C° 0 mm 2 mps 696 mmHg 86%
    07:00 +4°C° 0 mm 2 mps 697 mmHg 86%
    08:00 +6°C° 0 mm 2 mps 697 mmHg 81%
    09:00 +8°C° 0 mm 1 mps 697 mmHg 76%
    10:00 +10°C° 0 mm 1 mps 698 mmHg 70%
    11:00 +10°C° 0 mm 1 mps 698 mmHg 68%
    12:00 +11°C° 0 mm 1 mps 698 mmHg 65%
    13:00 +11°C° 0 mm 1 mps 697 mmHg 63%
    14:00 +10°C° 0 mm 1 mps 697 mmHg 67%
    15:00 +9°C° 0 mm 1 mps 697 mmHg 70%
    16:00 +9°C° 0 mm 1 mps 697 mmHg 74%
    17:00 +8°C° 0 mm 1 mps 697 mmHg 76%
    18:00 +7°C° 0 mm 1 mps 698 mmHg 78%
    19:00 +6°C° 0 mm 1 mps 698 mmHg 80%
    20:00 +6°C° 0 mm 1 mps 698 mmHg 80%
    21:00 +5°C° 0 mm 2 mps 698 mmHg 80%
    22:00 +4°C° 0 mm 2 mps 698 mmHg 80%
    23:00 +4°C° 0 mm 2 mps 698 mmHg 80%

    24 November, Saturday

    Time Temperature Precipitation Wind Pressure Humidity
    00:00 +4°C° 0 mm 2 mps 698 mmHg 79%
    01:00 +4°C° 0 mm 2 mps 697 mmHg 79%
    02:00 +4°C° 0 mm 2 mps 697 mmHg 78%
    03:00 +4°C° 0 mm 2 mps 697 mmHg 78%
    04:00 +3°C° 0 mm 2 mps 697 mmHg 78%
    05:00 +4°C° 0 mm 2 mps 697 mmHg 77%
    06:00 +4°C° 0 mm 2 mps 697 mmHg 75%
    07:00 +4°C° 0 mm 2 mps 697 mmHg 74%
    08:00 +6°C° 0 mm 1 mps 697 mmHg 69%
    09:00 +8°C° 0 mm 1 mps 697 mmHg 63%
    10:00 +10°C° 0 mm 1 mps 698 mmHg 58%
    11:00 +11°C° 0 mm 1 mps 697 mmHg 57%
    12:00 +11°C° 0 mm 1 mps 697 mmHg 56%
    13:00 +11°C° 0 mm 1 mps 697 mmHg 55%
    14:00 +11°C° 0.1 mm 1 mps 696 mmHg 60%
    15:00 +10°C° 0.1 mm 1 mps 696 mmHg 64%
    16:00 +9°C° 0.1 mm 1 mps 696 mmHg 68%
    17:00 +8°C° 0 mm 1 mps 696 mmHg 69%
    18:00 +8°C° 0 mm 1 mps 696 mmHg 70%
    19:00 +8°C° 0 mm 1 mps 696 mmHg 71%
    20:00 +7°C° 0 mm 1 mps 696 mmHg 71%
    21:00 +7°C° 0 mm 1 mps 696 mmHg 70%
    22:00 +7°C° 0 mm 1 mps 696 mmHg 70%
    23:00 +6°C° 0 mm 2 mps 696 mmHg 70%
    Show more